| time (UTC) | temp F | wind direction | speed MPH | gust MPH | rain 1hr in | rain 24hr in | rain mn in | humidity % | barometer mb |
| 20260901233045 | 99 | 121 | 11.0 | 19.0 | 0.00 | 0.00 | 0.00 | 40 | 1010.5 |
| 20260901231541 | 99 | 127 | 12.0 | 19.0 | 0.00 | 0.00 | 0.00 | 39 | 1010.4 |
| 20260901230038 | 100 | 93 | 7.0 | 16.0 | 0.00 | 0.00 | 0.00 | 39 | 1010.3 |
| 20260901224555 | 100 | 135 | 10.0 | 17.0 | 0.00 | 0.00 | 0.00 | 40 | 1010.2 |
| 20260901223043 | 101 | 135 | 6.0 | 18.0 | 0.00 | 0.00 | 0.00 | 40 | 1010.2 |
| 20260901221546 | 101 | 133 | 4.0 | 16.0 | 0.00 | 0.00 | 0.00 | 40 | 1010.3 |
| 20260901220050 | 102 | 125 | 3.0 | 14.0 | 0.00 | 0.00 | 0.00 | 41 | 1010.3 |
| 20260901214546 | 101 | 109 | 3.0 | 14.0 | 0.00 | 0.00 | 0.00 | 42 | 1010.6 |
| 20260901213045 | 102 | 116 | 6.0 | 18.0 | 0.00 | 0.00 | 0.00 | 43 | 1010.6 |
| 20260901211543 | 102 | 96 | 6.0 | 15.0 | 0.00 | 0.00 | 0.00 | 43 | 1010.7 |
| 20260901210051 | 101 | 138 | 8.0 | 18.0 | 0.00 | 0.00 | 0.00 | 43 | 1010.9 |
| 20260901204540 | 101 | 144 | 3.0 | 16.0 | 0.00 | 0.00 | 0.00 | 43 | 1011.1 |
| 20260901203049 | 101 | 162 | 7.0 | 15.0 | 0.00 | 0.00 | 0.00 | 40 | 1011.4 |
| 20260901201542 | 101 | 113 | 7.0 | 21.0 | 0.00 | 0.00 | 0.00 | 39 | 1011.8 |
| 20260901200100 | 100 | 130 | 3.0 | 14.0 | 0.00 | 0.00 | 0.00 | 42 | 1012.0 |
| 20260901194601 | 100 | 125 | 4.0 | 17.0 | 0.00 | 0.00 | 0.00 | 42 | 1012.2 |
| 20260901193046 | 99 | 100 | 4.0 | 15.0 | 0.00 | 0.00 | 0.00 | 44 | 1012.4 |
| 20260901191546 | 99 | 136 | 9.0 | 18.0 | 0.00 | 0.00 | 0.00 | 43 | 1012.5 |
| 20260901190050 | 99 | 124 | 7.0 | 13.0 | 0.00 | 0.00 | 0.00 | 43 | 1012.8 |
| 20260901184546 | 98 | 132 | 10.0 | 18.0 | 0.00 | 0.00 | 0.00 | 46 | 1013.3 |
| 20260901183041 | 97 | 146 | 10.0 | 17.0 | 0.00 | 0.00 | 0.00 | 48 | 1013.4 |
| 20260901181546 | 97 | 130 | 4.0 | 15.0 | 0.00 | 0.00 | 0.00 | 49 | 1013.7 |
| 20260901180049 | 96 | 112 | 8.0 | 16.0 | 0.00 | 0.00 | 0.00 | 51 | 1013.9 |
| 20260901174548 | 95 | 360 | 7.0 | 18.0 | 0.00 | 0.00 | 0.00 | 54 | 1014.1 |
| 20260901173042 | 94 | 165 | 9.0 | 16.0 | 0.00 | 0.00 | 0.00 | 54 | 1014.2 |
| 20260901171555 | 93 | 130 | 11.0 | 17.0 | 0.00 | 0.00 | 0.00 | 55 | 1014.3 |
| 20260901170053 | 92 | 130 | 10.0 | 19.0 | 0.00 | 0.00 | 0.00 | 60 | 1014.5 |
| 20260901164553 | 92 | 129 | 5.0 | 11.0 | 0.00 | 0.00 | 0.00 | 61 | 1014.5 |
| 20260901163043 | 91 | 147 | 5.0 | 14.0 | 0.00 | 0.00 | 0.00 | 64 | 1014.6 |
| 20260901161545 | 90 | 186 | 8.0 | 17.0 | 0.00 | 0.00 | 0.00 | 66 | 1014.6 |
| 20260901160042 | 89 | 140 | 7.0 | 15.0 | 0.00 | 0.00 | 0.00 | 68 | 1014.6 |
| 20260901154544 | 89 | 126 | 6.0 | 14.0 | 0.00 | 0.00 | 0.00 | 70 | 1014.8 |
| 20260901153042 | 87 | 140 | 5.0 | 15.0 | 0.00 | 0.00 | 0.00 | 70 | 1014.8 |
| 20260901151543 | 87 | 150 | 8.0 | 17.0 | 0.00 | 0.00 | 0.00 | 72 | 1014.6 |
| 20260901150052 | 86 | 135 | 9.0 | 15.0 | 0.00 | 0.00 | 0.00 | 73 | 1014.6 |
| 20260901144543 | 85 | 169 | 8.0 | 15.0 | 0.00 | 0.00 | 0.00 | 75 | 1014.7 |
| 20260901143042 | 85 | 151 | 8.0 | 17.0 | 0.00 | 0.00 | 0.00 | 76 | 1014.6 |
| 20260901141543 | 84 | 145 | 10.0 | 16.0 | 0.00 | 0.00 | 0.00 | 79 | 1014.5 |
| 20260901140045 | 83 | 139 | 8.0 | 14.0 | 0.00 | 0.00 | 0.00 | 81 | 1014.5 |
| 20260901134548 | 82 | 159 | 8.0 | 14.0 | 0.00 | 0.00 | 0.00 | 83 | 1014.3 |
| 20260901133046 | 81 | 143 | 7.0 | 15.0 | 0.00 | 0.00 | 0.00 | 84 | 1014.4 |
| 20260901131545 | 80 | 125 | 6.0 | 9.0 | 0.00 | 0.00 | 0.00 | 85 | 1014.2 |
| 20260901130049 | 80 | 129 | 5.0 | 10.0 | 0.00 | 0.00 | 0.00 | 85 | 1014.1 |
| 20260901124545 | 80 | 147 | 5.0 | 11.0 | 0.00 | 0.00 | 0.00 | 85 | 1013.8 |
| 20260901123042 | 80 | 138 | 6.0 | 10.0 | 0.00 | 0.00 | 0.00 | 85 | 1013.8 |
| 20260901121602 | 80 | 142 | 5.0 | 10.0 | 0.00 | 0.00 | 0.00 | 85 | 1013.7 |
| 20260901120043 | 80 | 129 | 7.0 | 11.0 | 0.00 | 0.00 | 0.00 | 85 | 1013.5 |
| 20260901114551 | 80 | 162 | 7.0 | 11.0 | 0.00 | 0.00 | 0.00 | 85 | 1013.5 |
| 20260901113056 | 80 | 148 | 6.0 | 15.0 | 0.00 | 0.00 | 0.00 | 85 | 1013.6 |
| 20260901111550 | 80 | 138 | 6.0 | 13.0 | 0.00 | 0.00 | 0.00 | 84 | 1013.4 |
| 20260901110043 | 81 | 142 | 6.0 | 11.0 | 0.00 | 0.00 | 0.00 | 84 | 1013.6 |
| 20260901104555 | 81 | 152 | 8.0 | 14.0 | 0.00 | 0.00 | 0.00 | 84 | 1013.5 |
| 20260901103042 | 81 | 139 | 7.0 | 15.0 | 0.00 | 0.00 | 0.00 | 83 | 1013.5 |
| 20260901101549 | 81 | 152 | 6.0 | 11.0 | 0.00 | 0.00 | 0.00 | 83 | 1013.8 |
| 20260901100058 | 81 | 144 | 7.0 | 13.0 | 0.00 | 0.00 | 0.00 | 83 | 1013.7 |
| 20260901094558 | 81 | 154 | 8.0 | 12.0 | 0.00 | 0.00 | 0.00 | 82 | 1013.6 |
| 20260901093103 | 82 | 169 | 6.0 | 13.0 | 0.00 | 0.00 | 0.00 | 82 | 1013.6 |
| 20260901091548 | 82 | 153 | 5.0 | 13.0 | 0.00 | 0.00 | 0.00 | 82 | 1013.9 |
| 20260901090042 | 82 | 140 | 7.0 | 12.0 | 0.00 | 0.00 | 0.00 | 82 | 1013.9 |
| 20260901084540 | 82 | 122 | 7.0 | 12.0 | 0.00 | 0.00 | 0.00 | 81 | 1013.9 |
| 20260901083051 | 82 | 148 | 6.0 | 12.0 | 0.00 | 0.00 | 0.00 | 81 | 1014.0 |
| 20260901081545 | 82 | 128 | 8.0 | 11.0 | 0.00 | 0.00 | 0.00 | 81 | 1014.2 |
| 20260901080042 | 82 | 147 | 8.0 | 14.0 | 0.00 | 0.00 | 0.00 | 81 | 1014.1 |
| 20260901074542 | 83 | 142 | 6.0 | 12.0 | 0.00 | 0.00 | 0.00 | 81 | 1014.2 |
| 20260901073051 | 83 | 153 | 8.0 | 14.0 | 0.00 | 0.00 | 0.00 | 81 | 1014.1 |
| 20260901071544 | 83 | 153 | 9.0 | 13.0 | 0.00 | 0.00 | 0.00 | 80 | 1014.2 |
| 20260901070058 | 83 | 160 | 7.0 | 19.0 | 0.00 | 0.00 | 0.00 | 80 | 1014.3 |
| 20260901064545 | 83 | 155 | 8.0 | 15.0 | 0.00 | 0.00 | 0.00 | 80 | 1014.4 |
| 20260901063049 | 83 | 154 | 7.0 | 12.0 | 0.00 | 0.00 | 0.00 | 80 | 1014.4 |
| 20260901061543 | 83 | 133 | 6.0 | 12.0 | 0.00 | 0.00 | 0.00 | 80 | 1014.4 |
| 20260901060046 | 83 | 150 | 7.0 | 17.0 | 0.00 | 0.00 | 0.00 | 80 | 1014.6 |
| 20260901054542 | 83 | 158 | 5.0 | 12.0 | 0.00 | 0.00 | 0.00 | 80 | 1014.7 |
| 20260901053103 | 83 | 132 | 6.0 | 16.0 | 0.00 | 0.00 | 0.00 | 79 | 1014.6 |
| 20260901051551 | 84 | 125 | 9.0 | 15.0 | 0.00 | 0.00 | 0.00 | 79 | 1014.5 |
| 20260901050047 | 84 | 149 | 8.0 | 16.0 | 0.00 | 0.00 | 0.00 | 78 | 1014.6 |
| 20260901044556 | 84 | 132 | 9.0 | 13.0 | 0.00 | 0.00 | 0.00 | 77 | 1014.7 |
| 20260901043052 | 84 | 109 | 7.0 | 15.0 | 0.00 | 0.00 | 0.00 | 76 | 1014.9 |
| 20260901041550 | 84 | 121 | 6.0 | 15.0 | 0.00 | 0.00 | 0.00 | 75 | 1014.7 |
| 20260901040049 | 85 | 124 | 7.0 | 16.0 | 0.00 | 0.00 | 0.00 | 74 | 1014.6 |
| 20260901034544 | 85 | 134 | 11.0 | 23.0 | 0.00 | 0.00 | 0.00 | 73 | 1014.4 |
| 20260901033041 | 85 | 128 | 7.0 | 16.0 | 0.00 | 0.00 | 0.00 | 72 | 1014.1 |
| 20260901031551 | 86 | 130 | 6.0 | 18.0 | 0.00 | 0.00 | 0.00 | 71 | 1014.2 |
| 20260901030052 | 86 | 152 | 9.0 | 15.0 | 0.00 | 0.00 | 0.00 | 70 | 1014.1 |
| 20260901024543 | 87 | 129 | 10.0 | 19.0 | 0.00 | 0.00 | 0.00 | 69 | 1013.7 |
| 20260901023051 | 87 | 149 | 6.0 | 21.0 | 0.00 | 0.00 | 0.00 | 66 | 1013.2 |
| 20260901021549 | 88 | 113 | 8.0 | 24.0 | 0.00 | 0.00 | 0.00 | 64 | 1012.9 |
| 20260901020050 | 88 | 110 | 9.0 | 20.0 | 0.00 | 0.00 | 0.00 | 63 | 1012.6 |
| 20260901014549 | 89 | 138 | 11.0 | 20.0 | 0.00 | 0.00 | 0.00 | 61 | 1012.3 |
| 20260901013042 | 90 | 110 | 10.0 | 20.0 | 0.00 | 0.00 | 0.00 | 59 | 1012.1 |
| 20260901011553 | 91 | 119 | 10.0 | 23.0 | 0.00 | 0.00 | 0.00 | 57 | 1011.9 |
| 20260901010049 | 92 | 104 | 9.0 | 21.0 | 0.00 | 0.00 | 0.00 | 54 | 1011.8 |
| 20260901004545 | 93 | 110 | 9.0 | 29.0 | 0.00 | 0.00 | 0.00 | 52 | 1011.7 |
| 20260901003052 | 94 | 130 | 10.0 | 27.0 | 0.00 | 0.00 | 0.00 | 50 | 1011.5 |
| 20260901001550 | 95 | 117 | 9.0 | 23.0 | 0.00 | 0.00 | 0.00 | 48 | 1011.2 |
| 20260901000047 | 96 | 102 | 12.0 | 21.0 | 0.00 | 0.00 | 0.00 | 46 | 1011.1 |
| 20260831234540 | 97 | 139 | 15.0 | 24.0 | 0.00 | 0.00 | 0.00 | 41 | 1010.9 |